This is the latest recevied weather packets stored in our database for station/object NI4CE-11. If no packets are shown the sender has not sent any weather packets the latest 10 day(s).
| Time | Temp. | Humidity | Pressure | Rain* | Wind** | Luminosity | Snow |
|---|---|---|---|---|---|---|---|
| 1777393527 | 28.33° C | 100% | 1020 hPa | 0 mm | - | - | - |
| 1777393227 | 27.78° C | 100% | 1019.9 hPa | 0 mm | - | - | - |
| 1777392927 | 28.89° C | 100% | 1020.2 hPa | 0 mm | - | - | - |
| 1777392627 | 28.33° C | 100% | 1020.3 hPa | 0 mm | - | - | - |
| 1777392327 | 27.78° C | 100% | 1020.3 hPa | 0 mm | - | - | - |
| 1777392027 | 28.33° C | 100% | 1020.5 hPa | 0 mm | - | - | - |
| 1777391727 | 29.44° C | 100% | 1020.5 hPa | 0 mm | - | - | - |
| 1777391434 | 26.67° C | 100% | 1020.6 hPa | 0 mm | - | - | - |
| 1777391427 | 27.22° C | 100% | 1020.6 hPa | 0 mm | - | - | - |
| 1777391127 | 26.67° C | 100% | 1020.6 hPa | 0 mm | - | - | - |
| 1777391049 | 27.78° C | 100% | 1020.6 hPa | 0 mm | - | - | - |
| 1777390827 | 27.78° C | 100% | 1020.6 hPa | 0 mm | - | - | - |
| 1777390770 | 27.78° C | 100% | 1020.6 hPa | 0 mm | - | - | - |
| 1777390527 | 27.78° C | 100% | 1020.6 hPa | 0 mm | - | - | - |
| 1777390227 | 26.67° C | 100% | 1020.5 hPa | 0 mm | - | - | - |
| 1777389927 | 28.33° C | 100% | 1020.5 hPa | 0 mm | - | - | - |
| 1777389627 | 27.22° C | 100% | 1020.5 hPa | 0 mm | - | - | - |
| 1777389327 | 26.67° C | 100% | 1020.5 hPa | 0 mm | - | - | - |
| 1777389027 | 26.67° C | 100% | 1020.6 hPa | 0 mm | - | - | - |
| 1777388727 | 26.11° C | 100% | 1020.5 hPa | 0 mm | - | - | - |
| 1777388427 | 27.78° C | 100% | 1020.5 hPa | 0 mm | - | - | - |
| 1777388127 | 26.11° C | 100% | 1020.5 hPa | 0 mm | - | - | - |
| 1777387827 | 26.67° C | 100% | 1020.5 hPa | 0 mm | - | - | - |
| 1777387527 | 26.67° C | 100% | 1020.4 hPa | 0 mm | - | - | - |
| 1777387227 | 26.11° C | 100% | 1020.4 hPa | 0 mm | - | - | - |
* Rain latest hour (hover to see other rain measurements)
** Current wind speed in m/s (hover to see current wind gust speed)